Date String (YYYY-MM-DD hh:mm:ss) UTC,Instrument flags,absolute air pressure of the measurement (hPa),sample flow rate (lpm),inlet stack bypass flow (lpm),air temperature of the measurement (°C),ambient temperature measured by the external sensor (°C),aerosol sample conditioner tube jacket temperature (°C),OPC LED temperature (°C),internal box temperature (°C),relative humidity of the measurement (%),span deviation,mass concentration of particles derived from Lorenz-Mie calculation of OPC scattering (μg/m³),mass concentration of particles derived from Lorenz-Mie calculation of OPC scattering (μg/m³),mass concentration of particles derived from Lorenz-Mie calculation of OPC scattering (μg/m³)
DateTimeUTC,F1_M11,P_M11,Q1_M11,Q2_M11,T1_M11,T2_M11,T3_M11,T4_M11,T5_M11,U1_M11,ZSPAN_M11,X0_M11,X2_M11,X1_M11
2023-06-21 23:00:00,SystemResetWarning,0829.7,5.00,000.00,030.7,027.9,000.0,038.9,031.4,31.8,0002.5,0019.53,0010.31,0009.02
2023-06-21 23:01:00,SystemResetWarning,0829.7,5.00,000.00,030.7,028.1,000.0,038.9,031.4,32.3,0002.5,0019.19,0010.28,0009.01
2023-06-21 23:02:00,SystemResetWarning,0829.7,4.98,000.00,030.7,027.2,000.0,038.8,031.5,32.8,0002.1,0018.17,0010.28,0009.00
2023-06-21 23:03:00,SystemResetWarning,0829.7,4.99,000.00,030.7,025.3,000.0,038.8,031.4,32.7,0001.6,0017.35,0010.31,0008.98
2023-06-21 23:04:00,SystemResetWarning,0829.7,5.01,000.00,030.6,024.7,000.0,038.7,031.3,32.8,0001.6,0016.92,0010.27,0008.94
2023-06-21 23:05:00,SystemResetWarning,0829.7,5.01,000.00,030.5,024.9,000.0,038.7,031.0,33.5,0001.7,0016.79,0010.25,0008.94
2023-06-21 23:06:00,SystemResetWarning,0829.7,4.99,000.00,030.3,025.3,000.0,038.7,030.9,33.9,0001.6,0016.96,0010.23,0008.95
2023-06-21 23:07:00,SystemResetWarning,0829.7,5.01,000.00,030.3,025.8,000.0,038.7,031.0,33.7,0001.9,0016.55,0010.17,0008.97
2023-06-21 23:08:00,SystemResetWarning,0829.7,5.00,000.00,030.3,026.3,000.0,038.7,031.0,33.3,0002.0,0016.53,0010.16,0009.00
2023-06-21 23:09:00,SystemResetWarning,0829.7,5.00,000.00,030.2,026.7,000.0,038.7,031.1,33.6,0001.8,0016.50,0010.11,0009.01
2023-06-21 23:10:00,SystemResetWarning,0829.8,5.00,000.00,030.2,027.1,000.0,038.7,031.2,34.6,0001.3,0017.29,0010.08,0009.03
2023-06-21 23:11:00,SystemResetWarning,0829.8,4.99,000.00,030.2,027.5,000.0,038.7,031.2,34.5,0001.1,0019.49,0010.09,0009.05
2023-06-21 23:12:00,SystemResetWarning,0829.8,5.01,000.00,030.3,027.7,000.0,038.7,031.3,34.9,0001.2,0020.48,0010.16,0009.08
2023-06-21 23:13:00,SystemResetWarning,0829.8,4.97,000.00,030.4,027.9,000.0,038.7,031.4,34.6,0001.1,0021.06,0010.25,0009.12
2023-06-21 23:14:00,SystemResetWarning,0829.8,5.02,000.00,030.6,027.6,000.0,038.7,031.5,34.7,0001.4,0021.07,0010.26,0009.15
2023-06-21 23:15:00,SystemResetWarning,0829.8,4.99,000.00,030.6,026.0,000.0,038.6,031.4,34.4,0001.3,0021.89,0010.30,0009.19
2023-06-21 23:16:00,SystemResetWarning,0829.8,4.99,000.00,030.7,025.6,000.0,038.6,031.4,34.4,0001.5,0022.67,0010.32,0009.19
2023-06-21 23:17:00,SystemResetWarning,0829.7,5.01,000.00,030.6,025.8,000.0,038.6,031.2,34.3,0001.7,0023.11,0010.34,0009.19
2023-06-21 23:18:00,SystemResetWarning,0829.6,5.01,000.00,030.5,026.2,000.0,038.7,031.2,34.4,0001.5,0024.20,0010.42,0009.19
2023-06-21 23:19:00,SystemResetWarning,0829.7,5.00,000.00,030.5,026.6,000.0,038.7,031.2,34.5,0001.2,0024.23,0010.48,0009.17
2023-06-21 23:20:00,SystemResetWarning,0829.5,4.98,000.00,030.5,027.0,000.0,038.7,031.3,34.7,0001.6,0024.58,0010.52,0009.15
2023-06-21 23:21:00,SystemResetWarning,0829.4,5.00,000.00,030.6,027.3,000.0,038.7,031.3,34.2,0002.0,0024.67,0010.57,0009.14
2023-06-21 23:22:00,SystemResetWarning,0829.3,5.00,000.00,030.6,027.6,000.0,038.8,031.4,33.4,0002.1,0022.45,0010.55,0009.12
2023-06-21 23:23:00,SystemResetWarning,0829.3,5.01,000.00,030.6,027.9,000.0,038.8,031.4,33.0,0002.2,0021.91,0010.49,0009.10
2023-06-21 23:24:00,SystemResetWarning,0829.3,4.98,000.00,030.7,027.7,000.0,038.8,031.5,33.8,0002.2,0022.62,0010.40,0009.07
2023-06-21 23:25:00,SystemResetWarning,0829.4,5.00,000.00,030.7,026.1,000.0,038.7,031.4,34.6,0002.3,0023.38,0010.36,0009.06
2023-06-21 23:26:00,SystemResetWarning,0829.4,5.02,000.00,030.6,025.5,000.0,038.7,031.5,34.5,0002.2,0024.58,0010.35,0009.06
2023-06-21 23:27:00,SystemResetWarning,0829.4,4.99,000.00,030.6,025.6,000.0,038.7,031.3,35.6,0001.9,0023.62,0010.33,0009.07
2023-06-21 23:28:00,SystemResetWarning,0829.3,5.02,000.00,030.7,026.0,000.0,038.7,031.3,35.9,0001.5,0022.89,0010.36,0009.10
2023-06-21 23:29:00,SystemResetWarning,0829.4,4.99,000.00,031.0,026.5,000.0,038.8,031.5,36.4,0001.4,0022.00,0010.41,0009.14
2023-06-21 23:30:00,SystemResetWarning,0829.4,5.00,000.00,031.3,026.9,000.0,038.8,031.6,36.0,0001.4,0023.21,0010.44,0009.17
2023-06-21 23:31:00,SystemResetWarning,0829.4,5.01,000.00,031.7,027.2,000.0,038.9,031.8,35.4,0001.1,0024.08,0010.48,0009.19
2023-06-21 23:32:00,SystemResetWarning,0829.5,4.99,000.00,032.1,027.6,000.0,038.9,032.0,34.1,0001.0,0023.23,0010.44,0009.19
2023-06-21 23:33:00,SystemResetWarning,0829.4,5.00,000.00,032.4,027.8,000.0,039.1,032.0,33.6,0001.2,0023.29,0010.43,0009.17
2023-06-21 23:34:00,SystemResetWarning,0829.4,5.00,000.00,032.6,027.0,000.0,039.2,032.0,33.4,0001.0,0023.95,0010.44,0009.16
2023-06-21 23:35:00,SystemResetWarning,0829.3,4.99,000.00,032.7,025.4,000.0,039.3,031.8,32.6,0001.0,0023.73,0010.44,0009.13
2023-06-21 23:36:00,SystemResetWarning,0829.3,5.01,000.00,032.7,024.8,000.0,039.3,031.8,33.6,0001.0,0023.25,0010.40,0009.09
2023-06-21 23:37:00,SystemResetWarning,0829.3,5.01,000.00,032.6,024.9,000.0,039.5,031.5,31.5,0001.3,0021.46,0010.41,0009.07
2023-06-21 23:38:00,SystemResetWarning,0829.4,5.00,000.00,032.4,025.4,000.0,039.6,031.4,32.1,0001.6,0021.41,0010.35,0009.02
2023-06-21 23:39:00,SystemResetWarning,0829.3,5.00,000.00,032.3,025.9,000.0,039.7,031.4,33.4,0002.0,0022.62,0010.31,0008.97
2023-06-21 23:40:00,SystemResetWarning,0829.3,5.00,000.00,032.3,026.4,000.0,039.7,031.5,34.0,0002.6,0022.87,0010.22,0008.91
2023-06-21 23:41:00,SystemResetWarning,0829.3,4.98,000.00,032.2,026.8,000.0,039.8,031.5,33.7,0003.0,0022.28,0010.10,0008.86
2023-06-21 23:42:00,SystemResetWarning,0829.4,5.00,000.00,032.2,027.2,000.0,039.8,031.6,34.5,0003.0,0021.41,0010.05,0008.84
2023-06-21 23:43:00,SystemResetWarning,0829.4,5.03,000.00,032.2,027.6,000.0,039.9,031.7,34.1,0003.0,0021.43,0010.04,0008.83
2023-06-21 23:44:00,SystemResetWarning,0829.4,4.97,000.00,032.3,027.8,000.0,039.9,031.8,32.6,0002.9,0021.42,0010.06,0008.84
2023-06-21 23:45:00,SystemResetWarning,0829.4,5.00,000.00,032.3,028.0,000.0,039.9,031.9,34.6,0002.9,0020.87,0010.04,0008.85
2023-06-21 23:46:00,SystemResetWarning,0829.4,5.02,000.00,032.4,026.7,000.0,039.9,032.0,35.2,0003.0,0019.52,0010.05,0008.87
2023-06-21 23:47:00,SystemResetWarning,0829.3,4.98,000.00,032.5,025.2,000.0,039.9,032.0,34.8,0003.4,0019.06,0010.09,0008.89
2023-06-21 23:48:00,SystemResetWarning,0829.3,5.02,000.00,032.6,024.9,000.0,039.8,031.9,32.8,0003.1,0019.12,0010.11,0008.90
2023-06-21 23:49:00,SystemResetWarning,0829.3,5.00,000.00,032.4,025.1,000.0,039.8,031.5,32.0,0003.1,0019.46,0010.15,0008.91
2023-06-21 23:50:00,SystemResetWarning,0829.3,5.00,000.00,032.3,025.6,000.0,039.9,031.4,32.2,0003.1,0018.92,0010.14,0008.91
2023-06-21 23:51:00,SystemResetWarning,0829.3,5.00,000.00,032.2,026.1,000.0,039.9,031.5,31.7,0002.9,0019.79,0010.14,0008.92
2023-06-21 23:52:00,SystemResetWarning,0829.3,5.00,000.00,032.2,026.6,000.0,039.9,031.6,31.5,0003.1,0019.42,0010.17,0008.92
2023-06-21 23:53:00,SystemResetWarning,0829.3,5.00,000.00,032.1,027.0,000.0,040.0,031.6,32.7,0003.1,0019.78,0010.20,0008.92
2023-06-21 23:54:00,SystemResetWarning,0829.3,4.99,000.00,032.1,027.3,000.0,040.0,031.7,33.4,0002.9,0020.39,0010.22,0008.93
2023-06-21 23:55:00,SystemResetWarning,0829.4,5.00,000.00,032.1,027.6,000.0,040.0,031.7,31.3,0002.8,0020.68,0010.26,0008.94
2023-06-21 23:56:00,SystemResetWarning,0829.4,5.00,000.00,032.1,027.9,000.0,040.0,031.8,31.4,0002.8,0020.63,0010.23,0008.95
2023-06-21 23:57:00,SystemResetWarning,0829.4,5.00,000.00,032.0,028.1,000.0,040.0,031.9,30.9,0002.9,0019.89,0010.22,0008.94
2023-06-21 23:58:00,SystemResetWarning,0829.4,4.98,000.00,032.1,027.3,000.0,040.0,032.0,31.1,0002.7,0020.00,0010.19,0008.94
2023-06-21 23:59:00,SystemResetWarning,0829.5,5.00,000.00,032.0,025.5,000.0,039.9,031.8,32.4,0002.6,0020.64,0010.14,0008.94
